• Processing (Info)

  • MPEC 2014-W72 : 2014 WE120

    The following Minor Planet Electronic Circular may be linked-to from your own Web pages, but must not otherwise be redistributed electronically.

    A form allowing access to any MPEC is at the bottom of this page.


    Read MPEC 2014-W71 Read MPEC 2014-W73


    M.P.E.C. 2014-W72                                Issued 2014 Nov. 22, 23:12 UT
    
         The Minor Planet Electronic Circulars contain information on unusual
             minor planets and routine data on comets.  They are published
       on behalf of Commission 20 of the International Astronomical Union by the
              Minor Planet Center, Smithsonian Astrophysical Observatory,
                              Cambridge, MA 02138, U.S.A.
    
                 Prepared using the Tamkin Foundation Computer Network
    
                                  MPC@CFA.HARVARD.EDU
                URL https://www.minorplanetcenter.net/    ISSN 1523-6714
    
                                      2014 WE120
    
    Observations:
         K14WC0E* C2014 11 21.26111 06 09 39.40 +47 47 56.3          18.9 VqEW072703
         K14WC0E  C2014 11 21.26515 06 09 43.83 +47 48 19.2          19.2 VqEW072703
         K14WC0E  C2014 11 21.26922 06 09 48.32 +47 48 43.7          19.3 VqEW072703
         K14WC0E  C2014 11 21.27326 06 09 52.84 +47 49 08.1          19.8 VqEW072703
         K14WC0E  C2014 11 21.33119 06 10 56.69 +47 54 50.6          18.9 VqEW072703
         K14WC0E  C2014 11 21.33745 06 11 03.47 +47 55 27.3          20.2 VqEW072703
         K14WC0E  C2014 11 21.35302506 11 19.74 +47 56 55.0          17.8 RtEW072H01
         K14WC0E  C2014 11 21.36101606 11 28.51 +47 57 40.6          18.7 RtEW072H01
         K14WC0E  C2014 11 21.37370506 11 42.46 +47 58 52.2          19.2 RtEW072H01
         K14WC0E  C2014 11 21.37991906 11 49.29 +47 59 27.2          18.8 RtEW072H01
         K14WC0E KC2014 11 21.38940 06 11 57.41 +48 00 06.2          19.5 RqEW072H36
         K14WC0E KC2014 11 21.39458 06 12 03.18 +48 00 34.5          19.5 RqEW072H36
         K14WC0E KC2014 11 22.00134 06 24 39.09 +48 55 20.0          19.7 VqEW072958
         K14WC0E KC2014 11 22.00794 06 24 47.18 +48 55 57.0          19.0 VqEW072958
         K14WC0E KC2014 11 22.01600 06 24 57.07 +48 56 42.6          19.6 VqEW072958
         K14WC0E KC2014 11 22.03357 06 25 18.25 +48 58 17.3          19.9 VqEW072I93
         K14WC0E KC2014 11 22.04331 06 25 30.13 +48 59 10.9          20.1 VqEW072I93
         K14WC0E KC2014 11 22.05379 06 25 43.01 +49 00 07.7          19.9 VqEW072I93
         K14WC0E KC2014 11 22.93501 06 45 56.88 +50 13 29.3          19.6 RqEW072113
         K14WC0E KC2014 11 22.94260 06 46 07.58 +50 14 07.7          19.2 RqEW072113
         K14WC0E KC2014 11 22.95020 06 46 18.32 +50 14 45.9          19.2 RqEW072113
    
    Observer details:
    113 Volkssternwarte Drebach, Schoenbrunn.  Observer G. Lehmann.  0.5-m f/4.6
        reflector + CCD.
    703 Catalina Sky Survey.  Observers R. A. Kowalski, R. G. Matheny.  Measurers
        E. J. Christensen, A. R. Gibbs, A. D. Grauer, R. E. Hill, J. A. Johnson,
        R. A. Kowalski, R. G. Matheny, S. M. Larson, F. C. Shelly.  0.68-m Schmidt
        + CCD.
    958 Observatoire de Dax.  Observers P. Dupouy, J. B. de Vanssay.  Measurer
        P. Dupouy.  0.43-m f/2.7 reflector + CCD.
    H01 Magdalena Ridge Observatory, Socorro.  Observer W. H. Ryan.  2.4-m f/8.9
        reflector + CCD.
    H36 Sandlot Observatory, Scranton.  Observer G. Hug.  0.56-m reflector + CCD.
    I93 St Pardon de Conques.  Observer F. Losse.  0.40-m f/3.7 reflector + CCD.
    
    Orbital elements:
    2014 WE120                                               Earth MOID = 0.0288 AU
    Epoch 2014 Dec. 9.0 TT = JDT 2457000.5                  MPC
    M 345.12434              (2000.0)            P               Q
    n   0.58206593     Peri.   90.56364     -0.36134196     -0.93234169
    a   1.4206527      Node    20.63390     +0.84005535     -0.33159638
    e   0.3404374      Incl.    2.12634     +0.40464674     -0.14416244
    P   1.69           H   24.0           G   0.15           U   8
    Residuals in seconds of arc
    141121 703  0.0   1.3+    141121 H01  0.1-  0.0     141122 958  0.8+  0.9+
    141121 703  0.4-  0.2-    141121 H01  0.0   0.1-    141122 I93  0.5-  0.4-
    141121 703  0.5-  0.2-    141121 H01  0.1-  0.0     141122 I93  1.1-  0.3-
    141121 703  0.1+  0.1-    141121 H36  0.2-  0.0     141122 I93  0.8-  0.8-
    141121 703  1.1+  0.6-    141121 H36  0.1+  0.1+    141122 113  0.0   0.3+
    141121 703  0.1+  0.3-    141122 958  0.8+  0.5+    141122 113  0.1-  0.0
    141121 H01  0.1-  0.1-    141122 958  0.8+  0.4+    141122 113  0.1+  0.3-
    
    Ephemeris:
    2014 WE120               a,e,i = 1.42, 0.34, 2                   q = 0.9370
    Date    TT    R. A. (2000) Decl.     Delta      r     Elong.  Phase     V
    2014 10 23    03 29 46.1 +21 53 41   0.1930  1.1711   153.7    22.2    21.8
    ...
    2014 11 07    04 05 09.2 +29 54 42   0.1137  1.0970   157.5    20.3    20.5
    ...
    2014 11 15    04 49 08.7 +38 16 47   0.07978 1.0605   152.1    25.8    19.8
    ...
    2014 11 21    06 04 32.6 +47 23 11   0.06005 1.0350   140.5    37.4    19.5
    2014 11 22    06 24 29.7 +48 55 10   0.05749 1.0310   137.6    40.3    19.5
    2014 11 23    06 47 22.4 +50 19 00   0.05519 1.0270   134.4    43.4    19.4
    ...
    2014 11 29    09 51 17.8 +50 25 13   0.04838 1.0045   110.6    66.9    19.8
    ...
    2014 12 07    12 32 37.0 +30 30 09   0.05920 0.9787    81.9    94.6    21.2
    ...
    2014 12 22    13 57 52.3 +07 30 20   0.1080  0.9460    66.5   107.4    23.1
    
    A. U. Tomatic                (C) Copyright 2014 MPC           M.P.E.C. 2014-W72
    

    Read MPEC 2014-W71 Read MPEC 2014-W73


    MPEC number:

    Enter an MPEC number in one of the following forms:

    • 1997-B01 (the full form)
    • J97B01 (the packed version of the full form)
    • B01 (the abbreviated form)